This is the latest recevied weather packets stored in our database for station/object KO4APQ. If no packets are shown the sender has not sent any weather packets the latest 10 day(s).
| Time | Temp. | Humidity | Pressure | Rain* | Wind** | Luminosity | Snow |
|---|---|---|---|---|---|---|---|
| 1777519115 | 21.67° C | 73% | 1011.4 hPa | 0 mm | - | 0 W/m² | - |
| 1777518810 | 21.67° C | 73% | 1011.5 hPa | 0 mm | - | 0 W/m² | - |
| 1777518507 | 21.67° C | 72% | 1011.3 hPa | 0 mm | - | 0 W/m² | - |
| 1777518202 | 21.67° C | 73% | 1011.4 hPa | 0 mm | - | 0 W/m² | - |
| 1777517899 | 21.67° C | 74% | 1011.2 hPa | 0 mm | - | 0 W/m² | - |
| 1777517594 | 21.11° C | 76% | 1011.6 hPa | 0 mm | - | 0 W/m² | - |
| 1777517293 | 21.11° C | 76% | 1011.5 hPa | 0 mm | - | 0 W/m² | - |
| 1777516991 | 21.11° C | 78% | 1011.4 hPa | 0 mm | - | 0 W/m² | - |
| 1777516688 | 20.56° C | 79% | 1011.2 hPa | 0 mm | - | 0 W/m² | - |
| 1777516384 | 20.56° C | 81% | 1011.3 hPa | 0 mm | - | 0 W/m² | - |
| 1777516080 | 20° C | 82% | 1011 hPa | 0 mm | - | 0 W/m² | - |
| 1777515777 | 20° C | 82% | 1010.9 hPa | 0 mm | - | 0 W/m² | - |
| 1777515474 | 20.56° C | 82% | 1010.8 hPa | 0 mm | - | 0 W/m² | - |
| 1777515171 | 20.56° C | 80% | 1011 hPa | 0 mm | - | 0 W/m² | - |
| 1777514867 | 21.11° C | 78% | 1010.9 hPa | 0 mm | - | 0 W/m² | - |
| 1777514563 | 21.67° C | 76% | 1010.8 hPa | 0 mm | - | 0 W/m² | - |
| 1777514262 | 21.67° C | 75% | 1010.9 hPa | 0 mm | - | 0 W/m² | - |
| 1777513957 | 21.67° C | 74% | 1010.8 hPa | 0 mm | - | 0 W/m² | - |
| 1777513655 | 22.22° C | 73% | 1010.8 hPa | 0 mm | - | 0 W/m² | - |
| 1777513352 | 22.22° C | 72% | 1010.9 hPa | 0 mm | - | 0 W/m² | - |
| 1777513047 | 22.78° C | 72% | 1010.6 hPa | 0 mm | - | 0 W/m² | - |
| 1777512744 | 22.78° C | 70% | 1010.5 hPa | 0 mm | - | 0 W/m² | - |
| 1777512441 | 22.78° C | 70% | 1010.6 hPa | 0 mm | - | 0 W/m² | - |
| 1777512137 | 23.33° C | 69% | 1010.6 hPa | 0 mm | - | 0 W/m² | - |
| 1777511835 | 23.33° C | 68% | 1010.3 hPa | 0 mm | - | 0 W/m² | - |
* Rain latest hour (hover to see other rain measurements)
** Current wind speed in m/s (hover to see current wind gust speed)